Location: Eymir
(36.7333°N, 29.7833°E)
Time: 18:25:53
(UTC+00:00)

Cosmos 1302 Rocket - Pass Details

Date: 14 January 2026
Orbit: 752 x 772 km, 74.0° (Epoch: 17 February)

Event Time Altitude Azimuth Distance (km) Brightness Sun altitude
Exits shadow 03:09:21 39° 347° (NNW) 1,138 4.7 -24.3°
Maximum altitude 03:11:21 84° 71° (ENE) 777 3.9 -23.9°
Drops below altitude 10° 03:16:34 10° 161° (SSE) 2,294 6.8 -22.9°
Sets 03:18:56 0° 162° (SSE) 3,213 7.6 -22.4°
